Temp
-4 -4 -4 -4 -4 -4 -4 -4 -4 -5 -5 -5 -5 -5 -5 -5 -5 -6 -6 -6 -6 -6 -5 -5 -5 -5 -5 -5 -5 -5 -5 -5 -5 -5 -4 -5 -5 -5 -4 -4 -4 -4 -4 -3 -4
-4 -4 -4 -4 -4 -4 -4 -4 -5 -5 -5 -5 -5 -5 -5 -5 -5 -5 -6 -6 -6 -5 -5 -5 -6 -5 -6 -5 -5 -5 -5 -6 -5 -5 -3 -5 -5 -4 -4 -4 -4 -4 -4 -3 -3
-5 -4 -4 -4 -4 -5 -5 -5 -5 -5 -5 -5 -5 -5 -5 -5 -5 -5 -6 -6 -6 -5 -5 -5 -6 -6 -6 -6 -5 -5 -6 -5 -5 -4 -4 -5 -4 -4 -4 -3 -4 -4 -4 -4 -3
-5 -5 -4 -5 -5 -5 -5 -5 -5 -6 -6 -6 -5 -5 -6 -6 -6 -6 -6 -6 -6 -5 -5 -5 -5 -6 -6 -6 -5 -5 -5 -5 -4 -4 -4 -4 -4 -4 -4 -3 -3 -3 -3 -3 -3
-5 -5 -5 -5 -5 -5 -5 -5 -6 -6 -6 -6 -5 -6 -6 -6 -6 -6 -6 -6 -6 -5 -5 -5 -6 -6 -6 -6 -6 -5 -5 -4 -5 -4 -4 -4 -4 -3 -3 -3 -3 -3 -3 -3 -3
-6 -5 -5 -5 -5 -5 -6 -6 -6 -6 -6 -6 -6 -6 -6 -7 -6 -6 -7 -6 -6 -5 -5 -6 -6 -6 -5 -5 -5 -5 -5 -5 -4 -4 -4 -4 -3 -3 -4 -3 -3 -2 -2 -3 -2
-5 -5 -5 -5 -5 -6 -6 -6 -6 -6 -6 -6 -6 -6 -6 -7 -7 -7 -6 -6 -6 -5 -5 -6 -6 -5 -6 -5 -5 -5 -5 -5 -3 -4 -4 -4 -2 -4 -5 -3 -3 -2 -2 -3 -3
-5 -5 -5 -5 -5 -6 -6 -6 -6 -6 -6 -5 -6 -6 -7 -7 -7 -7 -7 -6 -6 -6 -6 -6 -6 -5 -5 -6 -5 -5 -6 -5 -4 -4 -4 -4 -4 -5 -4 -3 -3 -3 -2 -2 -3
-5 -5 -5 -5 -5 -6 -6 -6 -6 -6 -5 -5 -6 -6 -7 -7 -8 -7 -7 -6 -6 -6 -6 -6 -6 -6 -5 -6 -6 -5 -4 -5 -5 -4 -4 -4 -4 -6 -4 -3 -3 -3 -3 -3 -3
-5 -5 -5 -5 -5 -6 -6 -6 -6 -5 -5 -5 -6 -6 -7 -7 -7 -6 -6 -6 -6 -6 -6 -6 -6 -6 -6 -6 -5 -5 -5 -6 -4 -4 -5 -5 -4 -5 -4 -3 -3 -4 -4 -4 -3
-5 -5 -5 -5 -5 -5 -6 -6 -5 -5 -5 -5 -5 -7 -7 -7 -7 -6 -6 -6 -6 -6 -6 -6 -6 -6 -6 -6 -6 -6 -6 -5 -5 -4 -4 -5 -4 -4 -4 -3 -3 -3 -4 -4 -4
-5 -5 -5 -5 -5 -5 -5 -5 -5 -5 -5 -5 -6 -6 -6 -7 -7 -6 -6 -5 -5 -5 -6 -5 -5 -6 -6 -6 -6 -5 -5 -5 -5 -4 -5 -5 -4 -4 -4 -3 -3 -3 -4 -4 -4
-5 -5 -5 -5 -5 -5 -5 -5 -5 -5 -5 -5 -6 -6 -6 -6 -7 -6 -6 -5 -5 -5 -6 -5 -6 -6 -6 -7 -5 -5 -4 -5 -5 -5 -5 -4 -4 -4 -4 -3 -3 -3 -3 -3 -4
-5 -5 -5 -5 -5 -5 -5 -5 -5 -5 -5 -6 -5 -7 -5 -6 -6 -6 -6 -6 -5 -5 -6 -5 -6 -6 -6 -6 -5 -5 -5 -5 -5 -5 -5 -4 -4 -4 -4 -3 -4 -4 -4 -4 -4
-6 -5 -5 -5 -5 -5 -5 -5 -5 -5 -5 -6 -5 -7 -5 -6 -7 -6 -7 -6 -6 -5 -5 -5 -5 -6 -6 -5 -5 -5 -4 -5 -5 -5 -5 -4 -4 -4 -3 -3 -4 -4 -4 -4 -4
-6 -6 -6 -6 -5 -5 -5 -5 -5 -5 -6 -6 -6 -7 -6 -6 -6 -7 -6 -6 -6 -6 -5 -5 -6 -6 -6 -6 -5 -6 -4 -4 -5 -5 -4 -5 -4 -4 -2 -2 -3 -4 -4 -5 -4
-6 -6 -6 -6 -6 -5 -5 -5 -5 -5 -6 -7 -7 -6 -6 -7 -7 -6 -6 -6 -6 -6 -5 -5 -5 -5 -6 -6 -5 -5 -5 -4 -4 -5 -4 -5 -4 -4 -4 -3 -3 -4 -4 -4 -5
-6 -7 -7 -7 -6 -6 -6 -5 -5 -6 -7 -7 -7 -7 -7 -7 -7 -7 -7 -6 -7 -6 -5 -5 -5 -5 -5 -5 -5 -5 -6 -6 -5 -5 -5 -5 -5 -4 -4 -3 -3 -3 -3 -4 -5
-7 -7 -7 -6 -7 -6 -6 -5 -6 -7 -6 -7 -7 -8 -8 -7 -8 -7 -7 -7 -7 -6 -5 -5 -5 -6 -6 -6 -6 -5 -5 -6 -6 -4 -4 -5 -5 -4 -3 -3 -4 -4 -4 -3 -4
-7 -7 -7 -7 -7 -7 -6 -6 -7 -7 -7 -7 -8 -8 -8 -8 -7 -7 -7 -7 -7 -7 -6 -5 -5 -6 -6 -6 -6 -6 -7 -6 -5 -5 -5 -5 -5 -5 -3 -3 -3 -3 -3 -3 -3
-8 -8 -8 -8 -8 -7 -7 -7 -7 -9 -9 -8 -8 -8 -8 -8 -8 -8 -7 -7 -8 -8 -7 -6 -6 -7 -7 -6 -6 -6 -6 -6 -6 -6 -6 -5 -4 -5 -5 -4 -4 -4 -4 -3 -4
-9 -9 -8 -8 -8 -8 -8 -8 -8 -9 -9 -9 -9 -8 -8 -8 -8 -7 -8 -7 -8 -8 -8 -7 -6 -7 -8 -8 -7 -6 -6 -6 -6 -6 -6 -5 -4 -5 -6 -5 -5 -4 -4 -4 -4
-9 -9 -9 -9 -9 -9 -8 -8 -8 -9 -9 -9 -9 -8 -8 -8 -7 -7 -8 -8 -8 -8 -8 -8 -7 -7 -8 -8 -7 -6 -6 -6 -7 -6 -5 -5 -3 -5 -5 -5 -5 -4 -4 -4 -5
-10 -10 -10 -10 -9 -9 -9 -8 -8 -8 -9 -8 -9 -9 -8 -8 -7 -7 -7 -8 -8 -8 -7 -8 -8 -7 -6 -6 -7 -7 -7 -7 -7 -6 -6 -4 -4 -6 -6 -5 -4 -4 -3 -4 -3
-10 -11 -11 -10 -10 -10 -10 -9 -9 -8 -9 -9 -9 -9 -9 -9 -8 -8 -8 -9 -9 -8 -7 -8 -7 -8 -8 -7 -8 -8 -7 -7 -6 -6 -5 -4 -5 -3 -6 -5 -4 -5 -4 -3 -5
-11 -10 -11 -11 -11 -11 -10 -10 -10 -9 -9 -9 -9 -9 -9 -9 -8 -8 -8 -8 -9 -9 -8 -8 -8 -8 -8 -8 -8 -8 -8 -7 -6 -5 -5 -4 -3 -4 -5 -5 -5 -5 -5 -5 -5
-11 -11 -11 -11 -11 -11 -10 -10 -10 -10 -9 -9 -9 -9 -9 -9 -9 -8 -8 -8 -8 -8 -8 -8 -8 -9 -9 -8 -8 -7 -6 -7 -7 -6 -5 -4 -6 -6 -6 -6 -5 -6 -6 -6 -6
Height
5883 5883 5883 5882 5882 5882 5882 5882 5883 5884 5886 5887 5890 5891 5892 5893 5895 5898 5899 5901 5900 5900 5904 5908 5911 5912 5913 5914 5914 5915 5915 5913 5912 5909 5913 5913 5913 5916 5918 5920 5919 5919 5920 5920 5921
5879 5879 5879 5880 5879 5879 5879 5879 5879 5880 5882 5884 5887 5889 5890 5890 5892 5895 5898 5899 5898 5900 5906 5909 5910 5911 5912 5913 5915 5915 5914 5914 5912 5912 5913 5911 5911 5919 5920 5920 5922 5923 5923 5923 5925
5876 5876 5876 5876 5876 5877 5876 5875 5876 5876 5878 5880 5884 5886 5887 5887 5889 5893 5895 5894 5895 5901 5905 5908 5908 5909 5910 5913 5915 5916 5915 5915 5913 5914 5915 5915 5915 5916 5922 5922 5924 5925 5925 5925 5927
5873 5873 5873 5873 5873 5873 5873 5872 5872 5873 5875 5877 5881 5883 5884 5885 5887 5889 5890 5892 5894 5901 5903 5905 5906 5903 5899 5905 5908 5914 5915 5917 5917 5917 5918 5920 5921 5918 5922 5926 5925 5927 5927 5926 5927
5869 5869 5869 5869 5869 5869 5869 5869 5869 5870 5872 5874 5877 5880 5881 5882 5882 5885 5888 5890 5894 5899 5902 5904 5905 5901 5895 5895 5904 5912 5916 5916 5918 5919 5919 5921 5923 5921 5921 5927 5927 5929 5930 5928 5929
5865 5865 5865 5865 5865 5865 5866 5866 5866 5867 5869 5871 5874 5876 5878 5878 5879 5881 5885 5888 5892 5897 5900 5902 5903 5901 5902 5897 5907 5911 5915 5916 5919 5920 5921 5923 5923 5923 5921 5928 5929 5932 5932 5932 5933
5860 5861 5861 5861 5861 5861 5862 5862 5863 5864 5866 5868 5870 5873 5874 5872 5875 5879 5884 5886 5891 5894 5899 5898 5900 5900 5898 5903 5907 5913 5915 5917 5920 5919 5921 5923 5924 5924 5924 5931 5932 5934 5935 5935 5935
5856 5857 5857 5857 5858 5858 5858 5858 5859 5860 5862 5864 5866 5869 5869 5869 5873 5876 5880 5884 5889 5893 5897 5894 5897 5901 5902 5905 5908 5911 5913 5916 5919 5919 5921 5924 5925 5927 5928 5931 5933 5935 5937 5937 5937
5852 5852 5852 5853 5853 5853 5853 5854 5855 5857 5859 5860 5863 5865 5864 5868 5868 5870 5877 5882 5885 5889 5892 5893 5895 5897 5896 5899 5907 5910 5913 5914 5919 5919 5921 5924 5927 5928 5930 5931 5933 5936 5938 5939 5940
5847 5847 5847 5848 5848 5849 5848 5850 5851 5853 5855 5857 5859 5862 5862 5863 5864 5867 5872 5877 5882 5884 5889 5892 5893 5894 5895 5898 5903 5911 5915 5917 5920 5922 5922 5923 5927 5928 5930 5932 5932 5934 5938 5940 5940
5843 5842 5842 5843 5843 5843 5844 5845 5848 5852 5853 5854 5856 5857 5857 5860 5862 5865 5869 5873 5878 5881 5887 5890 5892 5894 5895 5900 5899 5907 5914 5917 5918 5922 5925 5925 5929 5929 5931 5932 5932 5933 5936 5939 5940
5837 5838 5838 5838 5839 5838 5839 5840 5845 5848 5850 5850 5851 5852 5853 5856 5859 5861 5867 5872 5875 5881 5885 5888 5894 5894 5894 5898 5899 5907 5913 5916 5917 5919 5923 5926 5928 5930 5932 5932 5933 5934 5935 5938 5940
5830 5832 5833 5834 5834 5834 5834 5837 5840 5843 5845 5845 5847 5848 5850 5853 5854 5857 5864 5869 5874 5879 5882 5887 5893 5891 5895 5898 5902 5906 5910 5913 5916 5918 5920 5922 5926 5930 5932 5933 5932 5934 5935 5936 5939
5822 5824 5826 5828 5830 5829 5830 5832 5835 5837 5840 5841 5843 5844 5846 5850 5853 5854 5859 5865 5871 5877 5879 5882 5886 5891 5893 5899 5900 5903 5904 5908 5913 5915 5918 5921 5925 5927 5930 5931 5932 5933 5935 5937 5937
5813 5815 5818 5820 5823 5823 5826 5827 5829 5832 5835 5837 5839 5840 5842 5847 5850 5851 5856 5861 5868 5872 5875 5882 5884 5888 5891 5895 5898 5900 5902 5904 5910 5912 5916 5919 5922 5924 5926 5928 5929 5932 5934 5937 5936
5805 5807 5810 5812 5814 5818 5819 5821 5824 5828 5829 5831 5832 5835 5839 5844 5845 5847 5851 5856 5864 5866 5871 5875 5879 5884 5889 5891 5895 5896 5901 5903 5906 5909 5913 5916 5917 5919 5922 5925 5926 5928 5929 5936 5936
5798 5800 5801 5804 5802 5809 5812 5815 5819 5822 5824 5826 5828 5831 5834 5838 5840 5843 5846 5849 5854 5858 5864 5871 5875 5880 5884 5888 5892 5895 5899 5900 5903 5906 5910 5911 5912 5916 5917 5921 5923 5926 5928 5933 5936
5791 5792 5792 5792 5795 5800 5803 5808 5813 5817 5817 5821 5823 5826 5830 5832 5835 5839 5842 5845 5850 5856 5861 5866 5870 5876 5883 5886 5891 5892 5895 5898 5900 5903 5904 5905 5906 5910 5913 5916 5919 5921 5925 5928 5930
5783 5783 5782 5782 5789 5791 5795 5799 5808 5810 5813 5816 5819 5822 5825 5827 5830 5834 5838 5844 5848 5853 5856 5861 5868 5872 5876 5878 5883 5887 5890 5894 5895 5898 5902 5902 5905 5904 5908 5911 5914 5917 5920 5924 5925
5773 5773 5772 5777 5780 5782 5785 5793 5801 5804 5807 5810 5814 5818 5820 5821 5823 5827 5833 5840 5843 5848 5854 5858 5864 5866 5869 5872 5872 5878 5882 5886 5889 5891 5894 5898 5899 5900 5905 5905 5908 5911 5914 5917 5920
5762 5763 5764 5767 5769 5771 5775 5787 5793 5797 5800 5804 5807 5811 5813 5816 5818 5822 5828 5836 5838 5843 5848 5854 5857 5862 5863 5865 5870 5874 5877 5881 5884 5887 5889 5892 5896 5900 5901 5901 5902 5902 5906 5911 5912
5753 5754 5755 5757 5761 5764 5771 5777 5783 5788 5791 5794 5799 5804 5807 5810 5813 5816 5822 5829 5834 5837 5838 5846 5851 5853 5858 5862 5864 5868 5872 5870 5874 5883 5884 5886 5893 5898 5900 5899 5898 5897 5900 5903 5909
5745 5746 5747 5750 5752 5755 5760 5764 5768 5772 5777 5785 5790 5795 5799 5803 5810 5816 5818 5823 5827 5829 5830 5838 5841 5844 5848 5854 5856 5859 5865 5868 5872 5873 5877 5880 5888 5894 5893 5892 5892 5892 5896 5901 5905
5739 5740 5741 5743 5744 5748 5753 5759 5763 5768 5771 5777 5786 5789 5793 5798 5803 5808 5814 5817 5821 5824 5827 5830 5833 5837 5842 5849 5856 5857 5860 5863 5865 5866 5871 5871 5879 5886 5884 5885 5884 5884 5890 5892 5892
5733 5735 5735 5736 5737 5741 5747 5751 5755 5760 5767 5769 5778 5783 5787 5791 5796 5803 5808 5811 5816 5820 5824 5825 5825 5831 5839 5845 5848 5852 5855 5857 5857 5861 5861 5868 5866 5876 5872 5875 5876 5878 5882 5888 5889
5729 5728 5730 5731 5730 5734 5736 5741 5746 5751 5757 5761 5771 5776 5779 5783 5789 5797 5802 5807 5810 5815 5819 5820 5823 5826 5829 5835 5840 5842 5845 5849 5850 5853 5855 5858 5855 5863 5859 5864 5867 5869 5874 5880 5884
5722 5722 5722 5724 5725 5727 5729 5734 5738 5742 5748 5753 5759 5766 5771 5776 5783 5790 5794 5802 5806 5810 5813 5816 5819 5821 5825 5829 5831 5832 5839 5843 5844 5843 5846 5849 5851 5852 5858 5862 5863 5864 5868 5873 5876
Wind_Speed
14 13 13 13 14 13 13 15 17 19 18 17 16 15 14 18 21 21 21 19 20 19 14 7 6 10 11 14 12 13 10 9 12 17 17 18 18 13 12 13 13 9 9 13 17
13 13 13 14 14 14 15 15 17 18 19 18 18 15 14 16 22 24 22 21 22 21 14 10 9 9 13 15 13 19 14 10 14 13 16 18 19 9 11 15 14 12 11 9 13
14 13 14 15 16 15 15 16 17 17 17 19 18 15 14 14 21 24 25 27 25 21 15 12 13 14 16 22 20 19 17 14 16 16 16 13 15 14 11 13 14 13 14 10 11
15 15 16 17 17 16 15 17 17 14 14 17 18 16 15 15 19 26 28 27 26 20 16 14 11 16 18 33 27 21 19 17 17 18 16 12 10 17 14 14 18 17 16 13 13
17 17 18 18 18 17 16 17 16 16 15 16 18 16 15 16 20 25 29 27 26 20 17 15 10 10 5 30 34 28 22 19 15 17 15 14 13 17 19 17 19 19 19 16 16
19 19 18 17 17 17 18 16 14 15 15 15 18 16 16 19 19 23 28 28 26 21 19 15 11 11 13 35 28 28 21 16 18 20 19 17 17 17 17 15 19 23 25 20 18
21 19 17 16 16 19 19 17 14 14 13 13 15 16 16 22 17 21 27 27 24 23 19 18 14 6 24 30 31 24 23 15 17 25 24 22 23 19 18 14 20 21 22 21 17
19 18 17 16 17 19 20 19 16 15 15 15 14 15 17 20 14 21 29 27 25 23 21 20 16 17 21 23 29 21 22 25 26 28 26 25 24 16 19 20 18 16 17 16 14
19 18 18 19 20 20 20 20 18 17 17 16 16 14 21 14 15 28 30 29 27 25 23 24 19 11 14 41 30 27 23 21 23 25 22 21 20 18 19 22 22 19 17 17 17
17 18 19 20 21 21 21 21 20 20 17 14 14 16 20 20 21 28 34 32 29 29 26 24 21 17 14 39 31 20 23 20 21 24 22 18 18 19 20 21 24 22 16 13 10
18 17 17 18 20 22 21 23 22 19 14 13 13 18 22 16 18 25 34 34 32 32 26 26 23 13 18 26 31 33 26 21 20 24 13 12 15 20 20 20 23 23 18 14 11
24 21 18 17 18 21 22 23 19 17 15 16 14 20 21 18 18 24 32 33 34 29 27 28 20 16 16 20 15 19 26 19 23 22 16 17 12 22 18 19 20 17 18 12 11
29 27 24 21 19 20 23 21 21 18 16 17 15 21 18 19 20 24 29 32 31 30 28 26 18 23 21 18 17 16 26 22 18 18 20 19 22 24 18 10 15 15 12 12 7
32 32 29 26 24 22 20 22 21 21 17 20 15 19 16 14 18 24 27 34 33 29 30 29 27 25 27 25 24 17 23 29 27 26 25 25 23 26 24 16 16 15 11 10 10
28 32 32 31 29 27 22 19 20 21 19 21 15 22 16 13 16 21 23 31 33 33 34 27 27 25 28 26 29 22 27 35 33 28 26 27 25 20 30 25 23 18 14 9 10
27 27 30 32 34 30 27 24 20 19 19 20 21 22 19 17 21 23 25 30 35 37 34 32 30 28 28 32 28 27 32 36 33 29 29 24 28 21 26 29 20 19 15 4 5
26 25 27 31 38 34 32 29 24 17 19 21 22 23 24 20 23 24 26 34 40 42 39 34 31 28 33 29 30 24 33 30 42 33 29 31 30 24 26 23 21 16 13 11 5
25 24 28 31 36 34 37 34 27 19 24 26 26 25 23 24 24 23 22 29 37 42 39 37 38 29 31 29 29 27 37 34 30 34 33 33 33 31 29 25 20 18 14 16 11
25 24 30 34 30 35 37 38 27 24 26 30 29 24 20 24 23 25 23 20 27 38 41 38 34 31 30 29 35 30 33 33 27 26 42 32 28 31 27 25 20 21 22 24 14
27 27 29 28 28 33 39 35 30 29 30 34 33 28 28 23 29 28 24 19 21 28 38 38 34 34 32 31 31 39 32 28 26 28 30 39 29 30 23 25 23 24 27 25 27
25 29 28 28 32 36 37 32 30 37 37 35 33 35 34 29 27 24 27 20 19 17 26 38 38 35 34 33 28 31 34 30 28 32 38 38 36 23 25 23 23 23 29 29 32
24 25 27 27 31 33 30 32 34 45 45 42 36 38 37 35 35 33 24 23 22 21 26 31 42 39 35 32 32 40 36 35 31 23 33 41 35 30 16 13 15 18 19 26 14
21 23 24 24 29 31 33 38 43 58 55 50 43 43 41 38 35 34 31 28 28 29 35 31 42 44 42 42 40 34 30 25 26 27 28 34 27 30 30 25 22 25 23 23 29
20 20 20 21 26 29 29 34 42 56 57 54 47 47 44 41 37 35 34 32 31 33 33 33 35 44 47 41 37 39 32 31 31 34 31 35 29 31 42 47 39 33 25 23 24
18 17 16 21 26 24 23 29 39 49 60 59 55 49 49 46 43 36 35 38 30 31 34 33 34 27 26 38 39 38 36 38 40 38 40 32 37 33 52 51 42 33 34 26 29
18 18 15 19 26 25 26 29 34 45 57 61 58 56 52 52 48 43 39 32 33 33 34 36 34 31 35 33 37 43 41 33 36 24 21 20 36 27 48 54 41 37 39 34 29
21 18 17 17 23 27 29 29 31 38 49 57 63 60 60 58 52 49 46 38 39 37 37 35 34 34 38 34 38 44 36 35 23 29 27 18 5 19 39 44 41 40 41 36 28
Wind_Direction
260 265 264 265 266 267 273 271 261 251 243 241 228 228 227 223 217 213 208 208 217 223 215 217 166 200 200 193 205 184 165 124 112 101 106 92 78 85 107 112 116 121 102 112 112
260 259 260 260 264 268 272 274 267 256 243 238 225 229 233 227 219 215 214 212 219 227 221 213 199 202 196 199 227 180 141 130 126 112 102 85 88 88 118 129 127 140 128 126 119
256 259 259 257 260 263 273 278 270 260 243 233 221 229 236 237 225 218 212 211 218 221 221 226 218 234 234 199 178 177 157 150 137 120 104 91 107 113 105 115 124 132 127 132 118
260 265 261 258 257 261 269 273 266 258 237 228 222 230 238 244 235 219 217 214 220 217 217 229 235 257 253 194 211 193 173 160 135 114 107 117 118 112 113 118 114 118 124 123 114
264 268 262 258 258 260 263 268 259 252 241 231 228 233 239 237 239 221 216 214 219 216 211 226 228 282 194 187 199 175 171 161 133 126 130 134 145 126 117 126 119 124 127 122 112
268 271 263 257 259 258 256 262 254 246 241 235 232 230 236 234 241 220 210 213 214 214 210 220 218 241 201 172 175 172 162 159 157 141 137 138 150 126 107 126 129 127 123 119 109
269 265 258 257 261 260 251 254 253 240 237 235 227 231 238 237 236 216 205 209 213 215 210 216 221 221 186 178 159 165 178 174 162 139 127 134 138 111 109 131 127 124 122 121 119
264 262 260 260 260 259 252 249 252 241 240 240 236 234 221 235 227 205 198 204 207 213 213 215 216 210 218 192 159 171 170 172 156 139 129 130 119 114 130 134 130 125 124 117 120
263 261 258 258 258 258 254 245 249 240 240 241 232 222 228 229 206 195 192 200 202 211 211 218 217 205 174 182 164 168 174 157 151 137 130 136 137 138 139 141 131 127 121 113 111
264 262 259 256 256 254 252 243 244 237 240 249 240 221 228 226 217 200 189 197 200 210 210 220 222 213 148 163 166 152 184 175 157 144 137 138 153 151 153 145 142 137 136 125 115
261 260 259 258 253 251 251 240 237 237 246 253 233 216 228 230 222 205 199 195 202 210 210 215 220 242 180 179 174 185 168 172 182 171 149 154 171 165 159 161 151 152 146 148 149
257 255 255 257 254 249 249 238 241 242 241 247 232 221 231 226 219 211 202 202 207 204 212 221 214 220 210 144 141 161 181 183 199 205 208 181 189 178 164 166 154 148 157 159 157
254 252 249 249 250 250 249 245 243 246 239 244 229 219 228 221 209 209 200 206 209 202 208 223 217 226 213 198 193 182 177 174 177 174 193 194 193 185 170 187 165 148 146 136 115
252 249 247 245 244 247 247 245 243 242 237 229 216 210 225 215 217 211 197 204 207 205 209 211 214 220 212 206 205 193 196 193 183 189 201 199 179 172 187 180 142 138 127 112 94
261 249 243 243 241 242 242 244 242 241 230 229 222 213 221 192 206 211 197 205 207 209 211 211 214 221 216 201 206 220 206 195 200 199 202 203 198 190 189 181 141 131 110 85 93
261 255 246 240 238 239 237 237 234 232 220 215 215 208 216 207 208 208 204 199 204 209 210 209 214 214 206 206 203 219 209 195 195 202 212 212 208 199 196 174 161 152 151 142 55
266 257 248 240 238 233 234 233 231 228 214 208 210 212 209 199 215 217 216 204 205 206 209 208 215 208 206 209 206 218 198 202 200 208 204 210 218 191 218 196 175 173 176 206 204
272 256 248 239 238 231 230 231 225 211 207 201 209 212 202 195 202 217 222 213 211 212 213 206 213 210 215 215 212 211 201 201 198 210 208 217 230 224 222 227 208 198 212 195 179
260 258 248 243 239 232 230 228 219 212 216 198 200 195 174 191 194 214 217 218 215 217 214 212 212 216 220 226 213 212 212 215 226 238 225 227 235 232 223 227 234 240 251 223 209
259 254 249 246 238 234 229 224 212 210 207 205 202 191 174 180 191 205 213 208 211 221 224 219 210 213 218 225 235 218 212 212 221 214 219 225 236 250 239 243 252 263 255 237 237
260 252 249 240 234 231 229 221 206 197 198 199 201 191 186 183 183 185 208 198 203 209 223 224 215 210 218 228 226 211 217 214 216 208 215 226 228 243 254 269 269 290 269 257 240
260 253 247 240 236 232 226 216 201 192 198 199 202 199 200 195 194 194 183 194 194 196 209 218 218 212 213 218 226 221 229 232 218 237 233 230 223 224 243 260 260 264 264 265 256
262 255 247 239 236 231 223 214 202 195 203 202 199 202 207 209 209 210 177 189 198 200 196 198 216 217 210 213 221 225 222 234 240 248 247 245 243 222 228 225 231 240 244 239 254
268 257 248 242 239 237 229 223 211 201 206 208 200 203 210 211 216 216 200 206 203 209 202 195 213 226 225 221 222 229 235 241 246 248 255 253 251 221 240 240 235 238 223 239 238
284 264 247 239 239 236 232 225 219 208 208 216 204 207 209 210 217 217 215 208 211 225 193 207 207 211 228 222 224 233 240 245 248 255 257 261 260 268 236 239 241 239 247 235 211
290 278 251 241 243 231 223 219 223 212 209 215 213 213 214 215 216 215 215 203 217 217 215 208 225 212 228 224 224 226 230 244 249 239 257 272 264 282 237 228 224 235 246 251 233
293 286 270 247 239 238 233 223 221 216 214 214 218 216 219 221 219 217 218 207 210 217 224 230 228 225 232 238 231 234 224 232 252 259 270 279 258 225 226 227 230 227 235 245 247